Location: Mahannah Oil Field
(37.4664°N, 96.6003°W)
Time: 15:06:41
(UTC+00:00)

Vanguard 2 Rocket - Pass Details

Date: 23 June 2021
Orbit: 554 x 3325 km, 32.9° (Epoch: 24 July)

Event Time Altitude Azimuth Distance (km) Brightness Sun altitude
Rises 05:48:36 0° 281° (W) 7,022 11.7 -28.4°
Reaches altitude 10° 05:53:58 10° 277° (W) 5,716 11.1 -28.6°
Maximum altitude 06:08:58 48° 211° (SSW) 2,497 8.7 -28.9°
Enters shadow 06:10:10 47° 195° (SSW) 2,432 8.5 -29.0°
